Weather in Vilga

Russia / Republic of Karelia     61°49′06″N   34°05′15″E
temp.,
°C
wind,
m/s
gust,
m/s
humid.,
%
clouds,
%
prec.,
mm/h
press.,
hPa
HPBL,
m
31 july, sat
sat3100:00+13s26845 0.0 998123
03:00+13s29836 0.0 997176
06:00+14s28845 0.0 995215
09:00+17ssw476636 0.5 994816
12:00+17s346589 0.3 9941053
15:00+19sw346127 0.4 9951174
18:00+19wsw3562100 0.1 996809
21:00+17wsw386586 0.1 998407
1 august, sun
sun100:00+14sw278661 0.0 999184
03:00+12sw39963 0.0 1001190
06:00+14sw38865 0.0 1001243
09:00+19sw576658 0.0 10011024
12:00+21sw5759100 0.2 10011455
15:00+17ssw4990100 1.3 1001527
18:00+18ssw398937 1.3 1000769
21:00+15ssw23902 1.6 100039
2 august, mon
mon200:00+14ssw3119514 0.1 1001361
03:00+15sw4991100 0.1 1001696
06:00+15sw4109499 0.1 1002577
09:00+17sw5874100 0.1 1003815
12:00+21sw574871 0.0 10031512
15:00+22sw464463 0.0 10031658
18:00+21ssw3548100 0.0 10021173
21:00+16s237198 0.1 100157
3 august, tue
tue300:00+14ne2398100 2.6 100088
03:00+13nnw4899100 19.4 997429
06:00+13nw41199100 6.3 996642
09:00+13w489892 6.7 997475
12:00+19w586453 0.6 9981340
15:00+20w47645 2.1 9991370
18:00+20wsw475539 0.6 10001629
21:00+15wsw38791 0.7 1002280
4 august, wed
wed400:00+12w399971 0.0 1004397
03:00+11w389350 0.0 1006413
06:00+11wnw3890100 0.1 1008548
09:00+12wnw467882 0.1 1010843
12:00+15nw47492 0.1 10121430
15:00+18nw46378 0.1 10132174
18:00+18nw353948 0.0 10141959
21:00+11e237855 0.0 101772